Regional Weather Roundup
Issued by NWS

Home | Current Version | Previous Version | Text Only | Print | Product List | Glossary Off
Versions: 1 2 3 4 5 6 7 8 9 10 11 12 13 14 15 16 17 18 19 20 21 22 23 24 25 26 27 28 29 30 31 32 33 34 35 36 37 38 39 40 41 42 43 44 45 46 47 48 49 50

000
ASUS45 KBOI 281710
RWRID
WEATHER ROUNDUP FOR IDAHO
NATIONAL WEATHER SERVICE BOISE ID
1100 AM MDT SAT MAR 28 2015

NOTE: "FAIR" INDICATES FEW OR NO CLOUDS BELOW 12000 FEET
WITH NO SIGNIFICANT WEATHER AND/OR OBSTRUCTIONS TO VISIBILITY

IDZ012-014-281800-
SOUTHWEST IDAHO


CITY           SKY/WX    TMP DP  RH WIND       PRES   REMARKS
BOISE          SUNNY     54  32  43 NW23G33   30.26R
CALDWELL       MOSUNNY   55  30  38 W18G26    30.29R
MOUNTAIN HOME  SUNNY     55  32  42 NW24G33   30.25R
$$

IDZ016-017-281800-
SOUTHCENTRAL IDAHO


CITY           SKY/WX    TMP DP  RH WIND       PRES   REMARKS
BURLEY         LGT RAIN  55  38  52 W32G43    30.16R
JEROME         MOSUNNY   54  34  46 W33G45    30.18R
TWIN FALLS     MOSUNNY   53  33  46 W32G41    30.21R
$$

IDZ019>023-281800-
SOUTHEAST IDAHO


CITY           SKY/WX    TMP DP  RH WIND       PRES   REMARKS
IDAHO FALLS    MOSUNNY   61  33  35 SW25G37   30.03R
POCATELLO      MOSUNNY   63  29  27 W40G51    30.08R
REXBURG        SUNNY     60  32  34 SW28G39   29.99R
$$

IDZ006-010-011-018-031-032-281800-
CENTRAL IDAHO MOUNTAINS


CITY           SKY/WX    TMP DP  RH WIND       PRES   REMARKS
MCCALL         SUNNY     44  29  55 W10       30.19R
HAILEY         MOSUNNY   54  34  47 W13G31    30.11R
STANLEY          N/A     40  29  64 N12G18    30.17R WCI  33
SALMON         CLOUDY    43  37  81 S9        30.10R
CHALLIS        PTSUNNY   53  28  38 W23G38    30.05R
$$

IDZ002-004-006-007-026-281800-
NORTHERN IDAHO


CITY           SKY/WX    TMP DP  RH WIND       PRES   REMARKS
LEWISTON       SUNNY     56  35  45 W18G26    30.17R
LOWELL           N/A     49  44  83 CALM      30.21R
COEUR D`ALENE  CLOUDY    46  36  66 SW28G35   30.05R
MULLAN PASS    SNOW      29  28  96 SW9G20    29.99R VSB 1/4 WCI  20
$$



USA.gov is the U.S. government's official web portal to all federal, state and local government web resources and services.